Location: Risskov
(56.1972°N, 10.2480°E)
Time: 00:24:39
(UTC+00:00)

APEX - Pass Details

Date: 05 July 2020
Orbit: 333 x 1108 km, 69.9° (Epoch: 03 August)

Event Time Altitude Azimuth Distance (km) Brightness Sun altitude
Rises 21:55:26 0° 326° (NW) 2,226 8.3 -8.9°
Reaches altitude 10° 21:57:36 10° 337° (NNW) 1,322 7.0 -9.0°
Maximum altitude 22:00:11 32° 44° (NE) 609 3.8 -9.2°
Drops below altitude 10° 22:02:42 10° 111° (ESE) 1,279 4.8 -9.3°
Enters shadow 22:03:12 - 115° (ESE) 1,481 5.1 -9.3°
